P/2009 K1 ( Gibbs )

Japanese version
Home page
Updated on March 17, 2010

---------------------------------------------------------------------

* Profile

Discovery Date May 16, 2009
Magnitude 18.7 mag
Discoverer A. R. Gibbs (Mt. Lemmon)

* Pictures

* Orbital Elements

Epoch 2009 June 18.0 TT = JDT 2455000.5
T 2009 June 25.90699 TT                                 MPC
q   1.3230493            (2000.0)            P               Q
n   0.13988907     Peri.   27.05610     -0.94032821     +0.34003655
a   3.6751934      Node   172.78878     -0.32749855     -0.89439512
e   0.6400055      Incl.    5.74683     -0.09234474     -0.29057273
P   7.05

* Magnitudes Graph

        m1 = 9.5 + 5 log d + 40 log r(t - 40)

---------------------------------------------------------------------

The orbital elements are published on M.P.E.C. 2009-P10.
The magnitudes graphs are made with Comet for Windows.

---------------------------------------------------------------------

Copyright(C) Seiichi Yoshida (comet@aerith.net). All rights reserved.